Time,TemperatureF,DewpointF,PressureIn,WindDirection,WindDirectionDegrees,WindSpeedMPH,WindSpeedGustMPH,Humidity,HourlyPrecipIn,Conditions,Clouds,dailyrainin,SoftwareType,DateUTC
2013-02-23 08:50:00,33.1,31.8,30.16,NW,321,0.0,0.0,95,0.00,,,0.00,VWS V14.01,2013-02-23 13:50:00,
2013-02-23 08:51:00,33.1,31.8,30.16,NW,321,0.0,1.0,95,0.00,,,0.00,VWS V14.01,2013-02-23 13:51:00,
2013-02-23 08:52:00,33.1,31.8,30.16,NW,321,0.0,1.0,95,0.00,,,0.00,VWS V14.01,2013-02-23 13:52:00,
2013-02-23 08:57:00,33.2,31.9,30.15,NW,321,0.0,1.0,95,0.00,,,0.00,VWS V14.01,2013-02-23 13:57:00,
2013-02-23 09:02:00,33.3,32.0,30.15,NW,321,1.0,1.0,95,0.00,,,0.00,VWS V14.01,2013-02-23 14:02:00,
2013-02-23 09:07:00,33.4,32.1,30.15,NW,321,0.0,1.0,95,0.00,,,0.00,VWS V14.01,2013-02-23 14:07:00,
2013-02-23 09:12:00,33.5,32.2,30.14,NNW,339,0.0,2.0,95,0.00,,,0.00,VWS V14.01,2013-02-23 14:12:00,
2013-02-23 09:17:00,33.7,32.4,30.14,NNW,339,0.0,2.0,95,0.00,,,0.00,VWS V14.01,2013-02-23 14:17:00,
2013-02-23 09:22:00,33.7,32.4,30.14,NW,322,0.0,3.0,95,0.00,,,0.00,VWS V14.01,2013-02-23 14:22:00,
2013-02-23 09:28:00,33.7,32.4,30.15,NW,309,2.0,3.0,95,0.00,,,0.00,VWS V14.01,2013-02-23 14:28:00,
2013-02-23 09:33:00,33.8,32.5,30.14,NW,309,0.0,0.0,95,0.00,,,0.00,VWS V14.01,2013-02-23 14:33:00,
2013-02-23 09:38:00,33.8,32.5,30.14,NW,309,0.0,2.0,95,0.00,,,0.00,VWS V14.01,2013-02-23 14:38:00,
2013-02-23 09:43:00,33.9,32.6,30.14,NW,309,0.0,2.0,95,0.00,,,0.00,VWS V14.01,2013-02-23 14:43:00,
2013-02-23 09:47:00,33.9,32.6,30.14,NW,309,0.0,2.0,95,0.00,,,0.00,VWS V14.01,2013-02-23 14:47:00,
2013-02-23 09:52:00,34.0,32.7,30.14,West,275,1.0,2.0,95,0.00,,,0.00,VWS V14.01,2013-02-23 14:52:00,
2013-02-23 09:57:00,34.1,32.8,30.13,West,275,0.0,2.0,95,0.00,,,0.00,VWS V14.01,2013-02-23 14:57:00,
2013-02-23 10:02:00,34.1,32.8,30.13,WNW,295,0.0,1.0,95,0.00,,,0.00,VWS V14.01,2013-02-23 15:02:00,
2013-02-23 10:08:00,34.2,32.9,30.13,WNW,295,0.0,2.0,95,0.00,,,0.00,VWS V14.01,2013-02-23 15:08:00,
2013-02-23 10:13:00,34.2,32.9,30.13,WNW,295,0.0,2.0,95,0.00,,,0.00,VWS V14.01,2013-02-23 15:13:00,
2013-02-23 10:18:00,34.2,32.9,30.12,WNW,295,0.0,2.0,95,0.00,,,0.00,VWS V14.01,2013-02-23 15:18:00,
2013-02-23 10:23:00,34.3,33.0,30.12,WNW,295,0.0,2.0,95,0.00,,,0.00,VWS V14.01,2013-02-23 15:23:00,
2013-02-23 10:28:00,34.3,33.3,30.12,WNW,295,0.0,2.0,96,0.00,,,0.00,VWS V14.01,2013-02-23 15:28:00,
2013-02-23 10:33:00,34.3,33.3,30.11,NW,313,0.0,4.0,96,0.00,,,0.00,VWS V14.01,2013-02-23 15:33:00,
2013-02-23 10:38:00,34.4,33.4,30.10,NW,313,0.0,4.0,96,0.00,,,0.00,VWS V14.01,2013-02-23 15:38:00,
2013-02-23 10:43:00,34.4,33.4,30.10,NW,313,0.0,4.0,96,0.01,,,0.01,VWS V14.01,2013-02-23 15:43:00,
2013-02-23 10:48:00,34.5,33.5,30.10,NNW,344,0.0,4.0,96,0.01,,,0.01,VWS V14.01,2013-02-23 15:48:00,
2013-02-23 10:53:00,34.6,33.6,30.10,ENE,68,1.0,4.0,96,0.01,,,0.01,VWS V14.01,2013-02-23 15:53:00,
2013-02-23 10:58:00,34.7,33.7,30.10,NE,38,0.0,4.0,96,0.01,,,0.01,VWS V14.01,2013-02-23 15:58:00,
2013-02-23 11:03:00,34.8,33.8,30.09,WNW,282,0.0,5.0,96,0.01,,,0.01,VWS V14.01,2013-02-23 16:03:00,
2013-02-23 11:08:00,35.0,34.0,30.09,WNW,282,0.0,5.0,96,0.01,,,0.01,VWS V14.01,2013-02-23 16:08:00,
2013-02-23 11:13:00,35.1,34.1,30.09,WNW,282,0.0,5.0,96,0.01,,,0.01,VWS V14.01,2013-02-23 16:13:00,
2013-02-23 11:18:00,35.1,33.8,30.09,WNW,296,3.0,5.0,95,0.01,,,0.01,VWS V14.01,2013-02-23 16:18:00,
2013-02-23 11:23:00,35.1,33.8,30.09,NW,310,0.0,5.0,95,0.01,,,0.01,VWS V14.01,2013-02-23 16:23:00,
2013-02-23 11:28:00,35.2,33.9,30.09,WNW,302,0.0,5.0,95,0.01,,,0.01,VWS V14.01,2013-02-23 16:28:00,
2013-02-23 11:33:00,35.2,33.9,30.09,NW,313,0.0,1.0,95,0.01,,,0.01,VWS V14.01,2013-02-23 16:33:00,
2013-02-23 11:38:00,35.3,34.0,30.08,NW,319,0.0,5.0,95,0.01,,,0.01,VWS V14.01,2013-02-23 16:38:00,
2013-02-23 11:43:00,35.3,34.0,30.08,WSW,250,0.0,5.0,95,0.01,,,0.01,VWS V14.01,2013-02-23 16:43:00,
2013-02-23 11:48:00,35.4,34.1,30.08,West,279,2.0,5.0,95,0.01,,,0.01,VWS V14.01,2013-02-23 16:48:00,
2013-02-23 11:53:00,35.4,34.1,30.08,West,279,1.0,5.0,95,0.01,,,0.01,VWS V14.01,2013-02-23 16:53:00,
2013-02-23 11:58:00,35.5,34.2,30.08,NNW,333,2.0,5.0,95,0.01,,,0.01,VWS V14.01,2013-02-23 16:58:00,
2013-02-23 12:03:00,35.5,34.2,30.08,ENE,69,0.0,3.0,95,0.00,,,0.01,VWS V14.01,2013-02-23 17:03:00,
2013-02-23 12:09:00,35.6,34.3,30.07,WNW,296,0.0,3.0,95,0.00,,,0.01,VWS V14.01,2013-02-23 17:09:00,
2013-02-23 12:14:00,35.7,34.4,30.07,WNW,302,0.0,3.0,95,0.00,,,0.01,VWS V14.01,2013-02-23 17:14:00,
2013-02-23 12:19:00,35.7,34.4,30.07,WNW,302,0.0,3.0,95,0.00,,,0.01,VWS V14.01,2013-02-23 17:19:00,
2013-02-23 12:24:00,35.8,34.5,30.06,North,355,1.0,3.0,95,0.00,,,0.01,VWS V14.01,2013-02-23 17:24:00,
2013-02-23 12:29:00,35.9,34.6,30.06,NNW,336,0.0,3.0,95,0.01,,,0.02,VWS V14.01,2013-02-23 17:29:00,
2013-02-23 12:34:00,35.9,34.6,30.06,NNW,336,0.0,3.0,95,0.01,,,0.02,VWS V14.01,2013-02-23 17:34:00,
2013-02-23 12:39:00,35.9,34.9,30.06,NNW,336,2.0,3.0,96,0.01,,,0.02,VWS V14.01,2013-02-23 17:39:00,
2013-02-23 12:44:00,36.0,35.0,30.06,NNW,336,0.0,3.0,96,0.01,,,0.02,VWS V14.01,2013-02-23 17:44:00,
2013-02-23 12:49:00,36.1,35.1,30.05,NNW,336,0.0,3.0,96,0.01,,,0.02,VWS V14.01,2013-02-23 17:49:00,
2013-02-23 12:54:00,36.2,35.2,30.05,NNW,336,0.0,3.0,96,0.01,,,0.02,VWS V14.01,2013-02-23 17:54:00,
2013-02-23 12:59:00,36.3,35.3,30.05,NNW,336,0.0,3.0,96,0.01,,,0.02,VWS V14.01,2013-02-23 17:59:00,
2013-02-23 13:04:00,36.5,35.5,30.05,NNW,336,0.0,1.0,96,0.01,,,0.02,VWS V14.01,2013-02-23 18:04:00,
2013-02-23 13:09:00,36.5,35.5,30.05,NNW,337,1.0,2.0,96,0.01,,,0.02,VWS V14.01,2013-02-23 18:09:00,
2013-02-23 13:14:00,36.5,35.5,30.05,NW,311,0.0,3.0,96,0.01,,,0.02,VWS V14.01,2013-02-23 18:14:00,
2013-02-23 13:19:00,36.6,35.6,30.04,NW,313,0.0,3.0,96,0.01,,,0.02,VWS V14.01,2013-02-23 18:19:00,
2013-02-23 13:24:00,36.7,35.7,30.04,NW,313,0.0,3.0,96,0.01,,,0.02,VWS V14.01,2013-02-23 18:24:00,
2013-02-23 13:29:00,36.8,35.8,30.05,NW,313,0.0,3.0,96,0.02,,,0.03,VWS V14.01,2013-02-23 18:29:00,
2013-02-23 13:34:00,36.9,35.9,30.05,NW,313,0.0,0.0,96,0.01,,,0.03,VWS V14.01,2013-02-23 18:34:00,
2013-02-23 13:40:00,37.0,36.0,30.04,NW,313,0.0,2.0,96,0.01,,,0.03,VWS V14.01,2013-02-23 18:40:00,
2013-02-23 13:45:00,37.0,36.0,30.04,NW,313,0.0,2.0,96,0.01,,,0.03,VWS V14.01,2013-02-23 18:45:00,
2013-02-23 13:50:00,37.1,36.1,30.04,NW,313,0.0,2.0,96,0.01,,,0.03,VWS V14.01,2013-02-23 18:50:00,
2013-02-23 13:55:00,37.1,36.1,30.03,NW,313,0.0,2.0,96,0.02,,,0.04,VWS V14.01,2013-02-23 18:55:00,
2013-02-23 14:00:00,37.1,36.1,30.03,NW,313,0.0,2.0,96,0.02,,,0.04,VWS V14.01,2013-02-23 19:00:00,
2013-02-23 14:05:00,37.3,36.3,30.03,NW,313,0.0,0.0,96,0.02,,,0.04,VWS V14.01,2013-02-23 19:05:00,
2013-02-23 14:10:00,37.4,36.4,30.03,NW,306,0.0,2.0,96,0.02,,,0.04,VWS V14.01,2013-02-23 19:10:00,
2013-02-23 14:15:00,37.5,36.5,30.03,NW,306,0.0,2.0,96,0.02,,,0.04,VWS V14.01,2013-02-23 19:15:00,
2013-02-23 14:20:00,37.7,36.7,30.03,NW,306,0.0,2.0,96,0.02,,,0.04,VWS V14.01,2013-02-23 19:20:00,
2013-02-23 14:25:00,37.7,36.7,30.02,NW,306,0.0,2.0,96,0.02,,,0.04,VWS V14.01,2013-02-23 19:25:00,
2013-02-23 14:30:00,37.8,36.5,30.02,NNW,334,0.0,4.0,95,0.02,,,0.04,VWS V14.01,2013-02-23 19:30:00,
2013-02-23 14:36:00,37.7,36.4,30.02,NNE,17,0.0,2.0,95,0.01,,,0.04,VWS V14.01,2013-02-23 19:36:00,
2013-02-23 14:41:00,37.8,36.5,30.02,NW,323,1.0,4.0,95,0.01,,,0.04,VWS V14.01,2013-02-23 19:41:00,
2013-02-23 14:46:00,37.7,36.4,30.02,North,355,0.0,4.0,95,0.01,,,0.04,VWS V14.01,2013-02-23 19:46:00,
2013-02-23 14:51:00,37.6,36.0,30.01,North,355,0.0,4.0,94,0.01,,,0.04,VWS V14.01,2013-02-23 19:51:00,
2013-02-23 14:56:00,37.6,36.3,30.01,North,355,0.0,4.0,95,0.01,,,0.04,VWS V14.01,2013-02-23 19:56:00,
2013-02-23 15:01:00,37.6,36.0,30.01,North,355,0.0,0.0,94,0.00,,,0.04,VWS V14.01,2013-02-23 20:01:00,
2013-02-23 15:06:00,37.5,35.9,30.01,North,355,0.0,2.0,94,0.00,,,0.04,VWS V14.01,2013-02-23 20:06:00,
2013-02-23 15:11:00,37.5,35.9,30.01,North,355,0.0,2.0,94,0.00,,,0.04,VWS V14.01,2013-02-23 20:11:00,
2013-02-23 15:16:00,37.4,35.8,30.01,North,355,0.0,2.0,94,0.01,,,0.05,VWS V14.01,2013-02-23 20:16:00,
2013-02-23 15:21:00,37.3,35.7,30.00,North,355,0.0,2.0,94,0.01,,,0.05,VWS V14.01,2013-02-23 20:21:00,
2013-02-23 15:26:00,37.1,35.5,30.00,NNW,339,0.0,3.0,94,0.01,,,0.05,VWS V14.01,2013-02-23 20:26:00,
2013-02-23 15:32:00,36.9,35.3,30.01,NW,319,0.0,1.0,94,0.01,,,0.05,VWS V14.01,2013-02-23 20:32:00,
2013-02-23 15:37:00,36.6,35.0,30.01,NW,326,1.0,2.0,94,0.01,,,0.05,VWS V14.01,2013-02-23 20:37:00,
2013-02-23 15:42:00,36.5,34.9,30.00,NW,324,4.0,5.0,94,0.01,,,0.05,VWS V14.01,2013-02-23 20:42:00,
2013-02-23 15:47:00,36.4,34.8,30.00,NW,315,0.0,5.0,94,0.02,,,0.06,VWS V14.01,2013-02-23 20:47:00,
2013-02-23 15:52:00,36.3,35.0,30.01,NW,315,0.0,5.0,95,0.02,,,0.06,VWS V14.01,2013-02-23 20:52:00,
2013-02-23 15:57:00,36.3,35.0,30.00,NW,315,0.0,5.0,95,0.02,,,0.06,VWS V14.01,2013-02-23 20:57:00,
2013-02-23 16:02:00,36.2,34.9,30.00,West,280,1.0,1.0,95,0.02,,,0.06,VWS V14.01,2013-02-23 21:02:00,
2013-02-23 16:07:00,36.2,34.9,30.01,WNW,282,0.0,2.0,95,0.02,,,0.06,VWS V14.01,2013-02-23 21:07:00,
2013-02-23 16:12:00,36.1,34.8,30.01,WNW,282,0.0,2.0,95,0.02,,,0.06,VWS V14.01,2013-02-23 21:12:00,
2013-02-23 16:17:00,35.9,34.6,30.00,WNW,282,0.0,2.0,95,0.02,,,0.06,VWS V14.01,2013-02-23 21:17:00,
2013-02-23 16:22:00,35.8,34.5,30.00,NW,310,0.0,4.0,95,0.02,,,0.06,VWS V14.01,2013-02-23 21:22:00,
2013-02-23 16:27:00,35.7,34.4,30.00,NW,310,1.0,4.0,95,0.02,,,0.06,VWS V14.01,2013-02-23 21:27:00,
2013-02-23 16:32:00,35.7,34.4,29.99,WNW,298,0.0,0.0,95,0.02,,,0.07,VWS V14.01,2013-02-23 21:32:00,
2013-02-23 16:38:00,35.6,34.3,29.99,NW,313,1.0,3.0,95,0.02,,,0.07,VWS V14.01,2013-02-23 21:38:00,
2013-02-23 16:43:00,35.5,34.5,29.99,NW,311,0.0,3.0,96,0.02,,,0.07,VWS V14.01,2013-02-23 21:43:00,
2013-02-23 16:48:00,35.5,34.5,29.99,NW,311,0.0,3.0,96,0.03,,,0.08,VWS V14.01,2013-02-23 21:48:00,
2013-02-23 16:53:00,35.5,34.5,29.98,North,355,3.0,4.0,96,0.03,,,0.08,VWS V14.01,2013-02-23 21:53:00,
2013-02-23 16:58:00,35.5,34.5,29.98,West,271,0.0,4.0,96,0.03,,,0.08,VWS V14.01,2013-02-23 21:58:00,
2013-02-23 17:03:00,35.5,34.5,29.98,West,281,0.0,1.0,96,0.02,,,0.08,VWS V14.01,2013-02-23 22:03:00,
2013-02-23 17:08:00,35.4,34.4,29.98,West,281,0.0,2.0,96,0.02,,,0.08,VWS V14.01,2013-02-23 22:08:00,
2013-02-23 17:13:00,35.4,34.4,29.97,West,281,0.0,2.0,96,0.02,,,0.08,VWS V14.01,2013-02-23 22:13:00,
2013-02-23 17:18:00,35.3,34.3,29.97,WNW,287,0.0,3.0,96,0.02,,,0.08,VWS V14.01,2013-02-23 22:18:00,
2013-02-23 17:23:00,35.3,34.3,29.98,NW,306,0.0,3.0,96,0.02,,,0.08,VWS V14.01,2013-02-23 22:23:00,
2013-02-23 17:28:00,35.2,34.2,29.98,NW,306,0.0,3.0,96,0.02,,,0.08,VWS V14.01,2013-02-23 22:28:00,
2013-02-23 17:33:00,35.1,34.1,29.98,NW,306,0.0,1.0,96,0.02,,,0.08,VWS V14.01,2013-02-23 22:33:00,
2013-02-23 17:38:00,35.0,34.0,29.97,NW,306,0.0,1.0,96,0.02,,,0.08,VWS V14.01,2013-02-23 22:38:00,
2013-02-23 17:43:00,35.0,34.0,29.97,NW,321,0.0,6.0,96,0.03,,,0.09,VWS V14.01,2013-02-23 22:43:00,
2013-02-23 17:48:00,35.0,34.0,29.96,NNW,335,1.0,6.0,96,0.03,,,0.09,VWS V14.01,2013-02-23 22:48:00,
2013-02-23 17:53:00,35.0,34.0,29.96,NNW,335,0.0,6.0,96,0.04,,,0.10,VWS V14.01,2013-02-23 22:53:00,
2013-02-23 17:58:00,35.0,34.0,29.96,NNW,329,0.0,6.0,96,0.04,,,0.10,VWS V14.01,2013-02-23 22:58:00,
2013-02-23 18:03:00,34.9,33.9,29.95,NNW,330,0.0,3.0,96,0.02,,,0.10,VWS V14.01,2013-02-23 23:03:00,
2013-02-23 18:09:00,34.9,33.9,29.96,NNW,330,0.0,3.0,96,0.02,,,0.10,VWS V14.01,2013-02-23 23:09:00,
2013-02-23 18:14:00,34.8,33.8,29.95,WSW,240,2.0,8.0,96,0.02,,,0.10,VWS V14.01,2013-02-23 23:14:00,
2013-02-23 18:19:00,34.8,33.8,29.95,WNW,284,0.0,8.0,96,0.02,,,0.10,VWS V14.01,2013-02-23 23:19:00,
2013-02-23 18:24:00,34.8,33.8,29.95,WNW,297,1.0,8.0,96,0.02,,,0.10,VWS V14.01,2013-02-23 23:24:00,
2013-02-23 18:29:00,34.8,33.8,29.95,WNW,297,2.0,8.0,96,0.02,,,0.10,VWS V14.01,2013-02-23 23:29:00,
2013-02-23 18:34:00,34.8,33.8,29.95,NW,306,0.0,1.0,96,0.02,,,0.10,VWS V14.01,2013-02-23 23:34:00,
2013-02-23 18:39:00,34.7,33.7,29.96,NW,306,0.0,1.0,96,0.02,,,0.10,VWS V14.01,2013-02-23 23:39:00,
2013-02-23 18:44:00,34.6,33.6,29.96,NW,313,3.0,4.0,96,0.02,,,0.10,VWS V14.01,2013-02-23 23:44:00,
2013-02-23 18:49:00,34.6,33.6,29.95,NW,315,0.0,4.0,96,0.02,,,0.10,VWS V14.01,2013-02-23 23:49:00,
2013-02-23 18:54:00,34.6,33.6,29.95,ENE,67,1.0,5.0,96,0.02,,,0.10,VWS V14.01,2013-02-23 23:54:00,
2013-02-23 18:59:00,34.6,33.6,29.95,ENE,67,0.0,5.0,96,0.02,,,0.10,VWS V14.01,2013-02-23 23:59:00,
2013-02-23 19:04:00,34.6,33.6,29.95,NW,323,0.0,3.0,96,0.00,,,0.10,VWS V14.01,2013-02-24 00:04:00,
2013-02-23 19:09:00,34.6,33.6,29.95,NW,323,0.0,3.0,96,0.00,,,0.10,VWS V14.01,2013-02-24 00:09:00,
2013-02-23 19:14:00,34.6,33.6,29.95,NW,323,0.0,3.0,96,0.00,,,0.10,VWS V14.01,2013-02-24 00:14:00,
2013-02-23 19:19:00,34.6,33.6,29.95,NNW,333,1.0,3.0,96,0.00,,,0.10,VWS V14.01,2013-02-24 00:19:00,
2013-02-23 19:24:00,34.6,33.6,29.95,NNW,329,0.0,3.0,96,0.00,,,0.10,VWS V14.01,2013-02-24 00:24:00,
2013-02-23 19:29:00,34.6,33.6,29.94,NNW,335,0.0,3.0,96,0.00,,,0.10,VWS V14.01,2013-02-24 00:29:00,
2013-02-23 19:34:00,34.6,33.6,29.94,North,349,0.0,2.0,96,0.00,,,0.10,VWS V14.01,2013-02-24 00:34:00,
2013-02-23 19:39:00,34.5,33.5,29.94,NW,322,0.0,4.0,96,0.00,,,0.10,VWS V14.01,2013-02-24 00:39:00,
2013-02-23 19:44:00,34.5,33.5,29.94,NNW,340,4.0,5.0,96,0.00,,,0.10,VWS V14.01,2013-02-24 00:44:00,
2013-02-23 19:49:00,34.5,33.5,29.93,North,360,0.0,5.0,96,0.00,,,0.10,VWS V14.01,2013-02-24 00:49:00,
2013-02-23 19:55:00,34.5,33.5,29.93,NNE,13,0.0,6.0,96,0.00,,,0.10,VWS V14.01,2013-02-24 00:55:00,
2013-02-23 20:00:00,34.5,33.5,29.93,NW,307,0.0,6.0,96,0.00,,,0.10,VWS V14.01,2013-02-24 01:00:00,
2013-02-23 20:05:00,34.4,33.4,29.93,NW,318,0.0,4.0,96,0.00,,,0.10,VWS V14.01,2013-02-24 01:05:00,
2013-02-23 20:10:00,34.5,33.2,29.93,NW,317,1.0,4.0,95,0.00,,,0.10,VWS V14.01,2013-02-24 01:10:00,
2013-02-23 20:15:00,34.5,33.2,29.93,NW,317,0.0,4.0,95,0.00,,,0.10,VWS V14.01,2013-02-24 01:15:00,
2013-02-23 20:20:00,34.4,33.1,29.93,NW,317,0.0,4.0,95,0.00,,,0.10,VWS V14.01,2013-02-24 01:20:00,
2013-02-23 20:25:00,34.3,33.3,29.92,NW,317,0.0,4.0,96,0.00,,,0.10,VWS V14.01,2013-02-24 01:25:00,
2013-02-23 20:30:00,34.3,33.3,29.92,NNW,348,1.0,4.0,96,0.00,,,0.10,VWS V14.01,2013-02-24 01:30:00,
2013-02-23 20:35:00,34.3,33.3,29.92,WNW,298,0.0,3.0,96,0.00,,,0.10,VWS V14.01,2013-02-24 01:35:00,
2013-02-23 20:40:00,34.3,33.3,29.92,WNW,298,1.0,3.0,96,0.00,,,0.10,VWS V14.01,2013-02-24 01:40:00,
2013-02-23 20:46:00,34.3,33.3,29.92,WNW,298,0.0,3.0,96,0.00,,,0.10,VWS V14.01,2013-02-24 01:46:00,
2013-02-23 20:51:00,34.2,33.2,29.92,NW,321,2.0,3.0,96,0.00,,,0.10,VWS V14.01,2013-02-24 01:51:00,
2013-02-23 20:56:00,34.2,33.2,29.92,NW,321,0.0,3.0,96,0.00,,,0.10,VWS V14.01,2013-02-24 01:56:00,
2013-02-23 21:01:00,34.2,33.2,29.91,NW,321,0.0,0.0,96,0.00,,,0.10,VWS V14.01,2013-02-24 02:01:00,
2013-02-23 21:06:00,34.1,33.1,29.91,NW,321,0.0,0.0,96,0.00,,,0.10,VWS V14.01,2013-02-24 02:06:00,
2013-02-23 21:11:00,34.0,32.7,29.91,NW,321,0.0,0.0,95,0.00,,,0.10,VWS V14.01,2013-02-24 02:11:00,
2013-02-23 21:16:00,33.9,32.6,29.91,NW,321,0.0,0.0,95,0.00,,,0.10,VWS V14.01,2013-02-24 02:16:00,
2013-02-23 21:21:00,33.9,32.9,29.90,NNW,338,0.0,2.0,96,0.00,,,0.10,VWS V14.01,2013-02-24 02:21:00,
2013-02-23 21:26:00,33.8,32.8,29.90,NNW,338,0.0,2.0,96,0.00,,,0.10,VWS V14.01,2013-02-24 02:26:00,
2013-02-23 21:31:00,33.8,32.8,29.90,NNW,338,0.0,0.0,96,0.00,,,0.10,VWS V14.01,2013-02-24 02:31:00,
2013-02-23 21:36:00,33.7,32.7,29.90,NNW,338,0.0,0.0,96,0.00,,,0.10,VWS V14.01,2013-02-24 02:36:00,
2013-02-23 21:41:00,33.7,32.7,29.89,NNW,338,0.0,0.0,96,0.00,,,0.10,VWS V14.01,2013-02-24 02:41:00,
2013-02-23 21:46:00,33.7,32.7,29.89,NNW,338,0.0,1.0,96,0.00,,,0.10,VWS V14.01,2013-02-24 02:46:00,
2013-02-23 21:51:00,33.7,32.7,29.89,NNW,338,0.0,1.0,96,0.00,,,0.10,VWS V14.01,2013-02-24 02:51:00,
2013-02-23 21:57:00,33.6,32.6,29.88,NNW,338,0.0,1.0,96,0.00,,,0.10,VWS V14.01,2013-02-24 02:57:00,
2013-02-23 22:02:00,33.6,32.6,29.88,NNW,343,0.0,2.0,96,0.00,,,0.10,VWS V14.01,2013-02-24 03:02:00,
2013-02-23 22:07:00,33.5,32.5,29.88,NNW,343,0.0,2.0,96,0.00,,,0.10,VWS V14.01,2013-02-24 03:07:00,
2013-02-23 22:12:00,33.5,32.5,29.88,NNW,343,0.0,2.0,96,0.00,,,0.10,VWS V14.01,2013-02-24 03:12:00,
2013-02-23 22:17:00,33.5,32.5,29.88,NNW,343,0.0,2.0,96,0.00,,,0.10,VWS V14.01,2013-02-24 03:17:00,
2013-02-23 22:22:00,33.4,32.4,29.88,NNW,343,0.0,2.0,96,0.00,,,0.10,VWS V14.01,2013-02-24 03:22:00,
2013-02-23 22:27:00,33.4,32.6,29.87,NNW,343,0.0,2.0,97,0.00,,,0.10,VWS V14.01,2013-02-24 03:27:00,
2013-02-23 22:32:00,33.4,32.6,29.87,NNW,343,0.0,0.0,97,0.00,,,0.10,VWS V14.01,2013-02-24 03:32:00,
2013-02-23 22:37:00,33.4,32.6,29.87,NNW,343,0.0,1.0,97,0.00,,,0.10,VWS V14.01,2013-02-24 03:37:00,
2013-02-23 22:42:00,33.4,32.6,29.86,NNW,343,0.0,1.0,97,0.00,,,0.10,VWS V14.01,2013-02-24 03:42:00,
2013-02-23 22:47:00,33.4,32.6,29.85,NNW,343,0.0,1.0,97,0.01,,,0.11,VWS V14.01,2013-02-24 03:47:00,
2013-02-23 22:52:00,33.4,32.6,29.85,NNW,343,0.0,1.0,97,0.01,,,0.11,VWS V14.01,2013-02-24 03:52:00,
2013-02-23 22:57:00,33.4,32.6,29.85,NNW,343,1.0,1.0,97,0.01,,,0.11,VWS V14.01,2013-02-24 03:57:00,
2013-02-23 23:02:00,33.4,32.6,29.85,NW,312,0.0,2.0,97,0.01,,,0.11,VWS V14.01,2013-02-24 04:02:00,
2013-02-23 23:07:00,33.4,32.6,29.85,NW,321,0.0,2.0,97,0.01,,,0.11,VWS V14.01,2013-02-24 04:07:00,
2013-02-23 23:12:00,33.4,32.6,29.84,NW,321,0.0,2.0,97,0.01,,,0.11,VWS V14.01,2013-02-24 04:12:00,
2013-02-23 23:17:00,33.4,32.6,29.84,NW,321,0.0,2.0,97,0.01,,,0.11,VWS V14.01,2013-02-24 04:17:00,
2013-02-23 23:22:00,33.4,32.6,29.84,NW,321,1.0,2.0,97,0.01,,,0.11,VWS V14.01,2013-02-24 04:22:00,
2013-02-23 23:27:00,33.3,32.5,29.83,NW,321,0.0,2.0,97,0.01,,,0.11,VWS V14.01,2013-02-24 04:27:00,
2013-02-23 23:33:00,33.3,32.5,29.83,NW,321,0.0,1.0,97,0.01,,,0.11,VWS V14.01,2013-02-24 04:33:00,
2013-02-23 23:38:00,33.3,32.5,29.84,NW,321,0.0,1.0,97,0.01,,,0.11,VWS V14.01,2013-02-24 04:38:00,
2013-02-23 23:43:00,33.3,32.5,29.83,NW,321,0.0,1.0,97,0.01,,,0.11,VWS V14.01,2013-02-24 04:43:00,
2013-02-23 23:48:00,33.4,32.6,29.83,NW,321,0.0,1.0,97,0.01,,,0.11,VWS V14.01,2013-02-24 04:48:00,
2013-02-23 23:53:00,33.4,32.6,29.82,NW,321,0.0,1.0,97,0.01,,,0.11,VWS V14.01,2013-02-24 04:53:00,
2013-02-23 23:58:00,33.4,32.6,29.82,NW,321,0.0,1.0,97,0.01,,,0.11,VWS V14.01,2013-02-24 04:58:00,